| time (UTC) | temp F | wind direction | speed MPH | gust MPH | rain 1hr in | rain 24hr in | rain mn in | humidity % | barometer mb |
| 20260903141535 | 58 | 94 | 0.0 | 3.0 | 0.00 | 0.00 | 0.00 | 52 | 1005.7 |
| 20260903141036 | 58 | 93 | 1.0 | 4.0 | 0.00 | 0.00 | 0.00 | 51 | 1005.7 |
| 20260903140534 | 58 | 94 | 2.0 | 4.0 | 0.00 | 0.00 | 0.00 | 48 | 1005.7 |
| 20260903140040 | 58 | 144 | 1.0 | 3.0 | 0.00 | 0.00 | 0.00 | 48 | 1005.6 |
| 20260903135532 | 58 | 360 | 1.0 | 3.0 | 0.00 | 0.00 | 0.00 | 48 | 1005.5 |
| 20260903135035 | 59 | 360 | 0.0 | 3.0 | 0.00 | 0.00 | 0.00 | 44 | 1005.5 |
| 20260903134532 | 60 | 228 | 0.0 | 5.0 | 0.00 | 0.00 | 0.00 | 42 | 1005.3 |
| 20260903132526 | 58 | 205 | 2.0 | 4.0 | 0.00 | 0.00 | 0.00 | 44 | 1005.1 |
| 20260903132027 | 58 | 211 | 1.0 | 5.0 | 0.00 | 0.00 | 0.00 | 45 | 1005.0 |
| 20260903131527 | 58 | 232 | 2.0 | 5.0 | 0.00 | 0.00 | 0.00 | 45 | 1005.0 |
| 20260903131024 | 58 | 220 | 1.0 | 3.0 | 0.00 | 0.00 | 0.00 | 46 | 1004.9 |
| 20260903130525 | 58 | 220 | 0.0 | 3.0 | 0.00 | 0.00 | 0.00 | 45 | 1004.9 |
| 20260903130023 | 58 | 219 | 1.0 | 2.0 | 0.00 | 0.00 | 0.00 | 46 | 1004.8 |
| 20260903125522 | 58 | 219 | 1.0 | 2.0 | 0.00 | 0.00 | 0.00 | 46 | 1004.7 |
| 20260903125022 | 58 | 220 | 1.0 | 2.0 | 0.00 | 0.00 | 0.00 | 45 | 1004.9 |
| 20260903124521 | 59 | 224 | 0.0 | 0.0 | 0.00 | 0.00 | 0.00 | 46 | 1004.8 |
| 20260903124022 | 59 | 224 | 0.0 | 0.0 | 0.00 | 0.00 | 0.00 | 46 | 1004.8 |
| 20260903124003 | 59 | 224 | 0.0 | 0.0 | 0.00 | 0.00 | 0.00 | 46 | 1004.7 |
| 20260903120558 | 58 | 224 | 0.0 | 2.0 | 0.00 | 0.00 | 0.00 | 46 | 1004.6 |
| 20260903120104 | 57 | 224 | 1.0 | 3.0 | 0.00 | 0.00 | 0.00 | 48 | 1004.6 |
| 20260903115555 | 57 | 224 | 0.0 | 3.0 | 0.00 | 0.00 | 0.00 | 53 | 1004.6 |
| 20260903115055 | 57 | 224 | 0.0 | 2.0 | 0.00 | 0.00 | 0.00 | 49 | 1004.5 |
| 20260903114555 | 58 | 224 | 1.0 | 2.0 | 0.00 | 0.00 | 0.00 | 51 | 1004.6 |
| 20260903114054 | 57 | 228 | 0.0 | 1.0 | 0.00 | 0.00 | 0.00 | 48 | 1004.5 |
| 20260903113552 | 58 | 228 | 0.0 | 1.0 | 0.00 | 0.00 | 0.00 | 48 | 1004.5 |
| 20260903113131 | 58 | 228 | 0.0 | 2.0 | 0.00 | 0.00 | 0.00 | 49 | 1004.6 |
| 20260903112551 | 59 | 228 | 0.0 | 2.0 | 0.00 | 0.00 | 0.00 | 49 | 1004.5 |
| 20260903112051 | 59 | 228 | 1.0 | 2.0 | 0.00 | 0.00 | 0.00 | 50 | 1004.5 |
| 20260903111550 | 60 | 228 | 1.0 | 2.0 | 0.00 | 0.00 | 0.00 | 49 | 1004.5 |
| 20260903111050 | 60 | 228 | 1.0 | 2.0 | 0.00 | 0.00 | 0.00 | 47 | 1004.5 |
| 20260903110550 | 60 | 228 | 0.0 | 2.0 | 0.00 | 0.00 | 0.00 | 45 | 1004.6 |
| 20260903110054 | 60 | 228 | 1.0 | 3.0 | 0.00 | 0.00 | 0.00 | 46 | 1004.5 |
| 20260903105549 | 60 | 228 | 1.0 | 3.0 | 0.00 | 0.00 | 0.00 | 44 | 1004.4 |
| 20260903105049 | 59 | 228 | 0.0 | 3.0 | 0.00 | 0.00 | 0.00 | 44 | 1004.4 |
| 20260903104559 | 59 | 228 | 0.0 | 3.0 | 0.00 | 0.00 | 0.00 | 44 | 1004.4 |
| 20260903104048 | 59 | 227 | 0.0 | 1.0 | 0.00 | 0.00 | 0.00 | 43 | 1004.4 |
| 20260903103548 | 58 | 227 | 0.0 | 3.0 | 0.00 | 0.00 | 0.00 | 46 | 1004.5 |
| 20260903103048 | 58 | 228 | 0.0 | 3.0 | 0.00 | 0.00 | 0.00 | 46 | 1004.5 |
| 20260903102546 | 59 | 227 | 1.0 | 2.0 | 0.00 | 0.00 | 0.00 | 45 | 1004.5 |
| 20260903102044 | 59 | 225 | 0.0 | 3.0 | 0.00 | 0.00 | 0.00 | 43 | 1004.5 |
| 20260903101544 | 60 | 225 | 0.0 | 4.0 | 0.00 | 0.00 | 0.00 | 42 | 1004.5 |
| 20260903101043 | 61 | 225 | 2.0 | 4.0 | 0.00 | 0.00 | 0.00 | 40 | 1004.4 |
| 20260903100543 | 61 | 223 | 2.0 | 4.0 | 0.00 | 0.00 | 0.00 | 40 | 1004.3 |
| 20260903100044 | 62 | 223 | 1.0 | 4.0 | 0.00 | 0.00 | 0.00 | 40 | 1004.2 |
| 20260903095541 | 61 | 204 | 1.0 | 3.0 | 0.00 | 0.00 | 0.00 | 41 | 1004.1 |
| 20260903095040 | 61 | 203 | 0.0 | 2.0 | 0.00 | 0.00 | 0.00 | 44 | 1004.0 |
| 20260903094549 | 61 | 194 | 0.0 | 2.0 | 0.00 | 0.00 | 0.00 | 45 | 1004.0 |
| 20260903094039 | 61 | 226 | 0.0 | 3.0 | 0.00 | 0.00 | 0.00 | 42 | 1004.0 |
| 20260903093537 | 62 | 226 | 1.0 | 3.0 | 0.00 | 0.00 | 0.00 | 40 | 1004.0 |
| 20260903093042 | 62 | 229 | 0.0 | 2.0 | 0.00 | 0.00 | 0.00 | 40 | 1003.9 |
| 20260903092536 | 62 | 229 | 0.0 | 2.0 | 0.00 | 0.00 | 0.00 | 40 | 1003.7 |
| 20260903092038 | 62 | 236 | 0.0 | 2.0 | 0.00 | 0.00 | 0.00 | 40 | 1003.7 |
| 20260903091545 | 62 | 236 | 0.0 | 2.0 | 0.00 | 0.00 | 0.00 | 38 | 1003.5 |
| 20260903091032 | 63 | 236 | 0.0 | 2.0 | 0.00 | 0.00 | 0.00 | 38 | 1003.6 |
| 20260903090531 | 63 | 236 | 1.0 | 2.0 | 0.00 | 0.00 | 0.00 | 38 | 1003.5 |
| 20260903090036 | 64 | 236 | 0.0 | 2.0 | 0.00 | 0.00 | 0.00 | 37 | 1003.3 |
| 20260903085529 | 63 | 236 | 0.0 | 2.0 | 0.00 | 0.00 | 0.00 | 37 | 1003.4 |
| 20260903085031 | 63 | 236 | 0.0 | 3.0 | 0.00 | 0.00 | 0.00 | 37 | 1003.4 |
| 20260903084528 | 64 | 236 | 0.0 | 4.0 | 0.00 | 0.00 | 0.00 | 37 | 1003.4 |
| 20260903084028 | 64 | 246 | 2.0 | 4.0 | 0.00 | 0.00 | 0.00 | 36 | 1003.5 |
| 20260903083529 | 64 | 248 | 0.0 | 2.0 | 0.00 | 0.00 | 0.00 | 38 | 1003.5 |
| 20260903083028 | 64 | 251 | 1.0 | 3.0 | 0.00 | 0.00 | 0.00 | 38 | 1003.5 |
| 20260903082528 | 64 | 257 | 2.0 | 3.0 | 0.00 | 0.00 | 0.00 | 37 | 1003.5 |
| 20260903082027 | 64 | 259 | 1.0 | 2.0 | 0.00 | 0.00 | 0.00 | 38 | 1003.4 |
| 20260903081526 | 64 | 260 | 0.0 | 0.0 | 0.00 | 0.00 | 0.00 | 38 | 1003.5 |
| 20260903081024 | 65 | 260 | 0.0 | 3.0 | 0.00 | 0.00 | 0.00 | 37 | 1003.4 |
| 20260903080524 | 65 | 260 | 0.0 | 6.0 | 0.00 | 0.00 | 0.00 | 36 | 1003.4 |
| 20260903080024 | 65 | 276 | 3.0 | 6.0 | 0.00 | 0.00 | 0.00 | 35 | 1003.4 |
| 20260903075523 | 65 | 267 | 1.0 | 6.0 | 0.00 | 0.00 | 0.00 | 35 | 1003.4 |
| 20260903075026 | 65 | 298 | 2.0 | 6.0 | 0.00 | 0.00 | 0.00 | 36 | 1003.4 |
| 20260903074521 | 65 | 314 | 3.0 | 7.0 | 0.00 | 0.00 | 0.00 | 35 | 1003.3 |
| 20260903074021 | 65 | 252 | 3.0 | 6.0 | 0.00 | 0.00 | 0.00 | 36 | 1003.4 |
| 20260903073525 | 65 | 259 | 1.0 | 5.0 | 0.00 | 0.00 | 0.00 | 35 | 1003.2 |
| 20260903073031 | 65 | 267 | 2.0 | 6.0 | 0.00 | 0.00 | 0.00 | 36 | 1003.2 |
| 20260903072519 | 66 | 267 | 2.0 | 4.0 | 0.00 | 0.00 | 0.00 | 35 | 1003.1 |
| 20260903072018 | 66 | 266 | 2.0 | 4.0 | 0.00 | 0.00 | 0.00 | 34 | 1003.1 |
| 20260903071526 | 66 | 265 | 1.0 | 4.0 | 0.00 | 0.00 | 0.00 | 34 | 1002.9 |
| 20260903071020 | 66 | 267 | 2.0 | 5.0 | 0.00 | 0.00 | 0.00 | 34 | 1002.9 |
| 20260903070517 | 66 | 276 | 3.0 | 7.0 | 0.00 | 0.00 | 0.00 | 34 | 1002.9 |
| 20260903070019 | 66 | 263 | 3.0 | 7.0 | 0.00 | 0.00 | 0.00 | 34 | 1002.9 |
| 20260903065516 | 67 | 261 | 2.0 | 3.0 | 0.00 | 0.00 | 0.00 | 34 | 1002.8 |
| 20260903065015 | 67 | 256 | 2.0 | 6.0 | 0.00 | 0.00 | 0.00 | 33 | 1003.0 |
| 20260903064515 | 67 | 261 | 2.0 | 6.0 | 0.00 | 0.00 | 0.00 | 33 | 1002.9 |
| 20260903064014 | 67 | 316 | 2.0 | 5.0 | 0.00 | 0.00 | 0.00 | 33 | 1003.0 |
| 20260903063514 | 67 | 301 | 2.0 | 4.0 | 0.00 | 0.00 | 0.00 | 33 | 1003.0 |
| 20260903034045 | 73 | 248 | 2.0 | 5.0 | 0.00 | 0.00 | 0.00 | 24 | 1001.7 |
| 20260903033543 | 73 | 256 | 2.0 | 5.0 | 0.00 | 0.00 | 0.00 | 24 | 1001.8 |
| 20260903033144 | 73 | 202 | 1.0 | 5.0 | 0.00 | 0.00 | 0.00 | 24 | 1001.8 |
| 20260903032545 | 73 | 238 | 2.0 | 5.0 | 0.00 | 0.00 | 0.00 | 23 | 1001.8 |
| 20260903032044 | 73 | 242 | 2.0 | 7.0 | 0.00 | 0.00 | 0.00 | 24 | 1001.8 |
| 20260903031543 | 73 | 249 | 2.0 | 7.0 | 0.00 | 0.00 | 0.00 | 23 | 1001.6 |
| 20260903031043 | 74 | 257 | 3.0 | 7.0 | 0.00 | 0.00 | 0.00 | 23 | 1001.6 |
| 20260903030543 | 74 | 234 | 4.0 | 7.0 | 0.00 | 0.00 | 0.00 | 23 | 1001.5 |
| 20260903030043 | 74 | 240 | 2.0 | 4.0 | 0.00 | 0.00 | 0.00 | 24 | 1001.5 |
| 20260903025543 | 74 | 265 | 2.0 | 6.0 | 0.00 | 0.00 | 0.00 | 24 | 1001.5 |
| 20260903025043 | 74 | 281 | 2.0 | 6.0 | 0.00 | 0.00 | 0.00 | 24 | 1001.5 |
| 20260903024545 | 74 | 234 | 2.0 | 5.0 | 0.00 | 0.00 | 0.00 | 23 | 1001.4 |
| 20260903024044 | 74 | 252 | 2.0 | 4.0 | 0.00 | 0.00 | 0.00 | 24 | 1001.3 |
| 20260903023542 | 74 | 259 | 1.0 | 6.0 | 0.00 | 0.00 | 0.00 | 25 | 1001.3 |
| 20260903023042 | 74 | 254 | 1.0 | 8.0 | 0.00 | 0.00 | 0.00 | 24 | 1001.3 |
| 20260903022545 | 75 | 275 | 4.0 | 8.0 | 0.00 | 0.00 | 0.00 | 25 | 1001.4 |
| 20260903022042 | 75 | 288 | 4.0 | 8.0 | 0.00 | 0.00 | 0.00 | 23 | 1001.3 |
| 20260903021543 | 75 | 281 | 3.0 | 8.0 | 0.00 | 0.00 | 0.00 | 22 | 1001.3 |
| 20260903021042 | 76 | 278 | 3.0 | 8.0 | 0.00 | 0.00 | 0.00 | 22 | 1001.3 |
| 20260903020541 | 76 | 290 | 5.0 | 11.0 | 0.00 | 0.00 | 0.00 | 22 | 1001.3 |
| 20260903020043 | 76 | 350 | 4.0 | 13.0 | 0.00 | 0.00 | 0.00 | 23 | 1001.1 |
| 20260903015541 | 77 | 323 | 7.0 | 13.0 | 0.00 | 0.00 | 0.00 | 22 | 1001.1 |
| 20260903015040 | 77 | 313 | 8.0 | 16.0 | 0.00 | 0.00 | 0.00 | 22 | 1001.2 |
| 20260903014547 | 78 | 342 | 9.0 | 16.0 | 0.00 | 0.00 | 0.00 | 20 | 1001.1 |
| 20260903014040 | 80 | 26 | 2.0 | 11.0 | 0.00 | 0.00 | 0.00 | 19 | 1001.2 |
| 20260903013540 | 81 | 232 | 4.0 | 9.0 | 0.00 | 0.00 | 0.00 | 14 | 1001.2 |
| 20260903013049 | 82 | 180 | 3.0 | 7.0 | 0.00 | 0.00 | 0.00 | 13 | 1001.1 |
| 20260903012540 | 82 | 180 | 4.0 | 8.0 | 0.00 | 0.00 | 0.00 | 12 | 1001.1 |
| 20260903012039 | 82 | 180 | 3.0 | 8.0 | 0.00 | 0.00 | 0.00 | 12 | 1001.1 |
| 20260903011539 | 82 | 173 | 2.0 | 6.0 | 0.00 | 0.00 | 0.00 | 14 | 1001.1 |
| 20260903011038 | 82 | 182 | 3.0 | 7.0 | 0.00 | 0.00 | 0.00 | 13 | 1001.1 |
| 20260903010538 | 83 | 182 | 4.0 | 8.0 | 0.00 | 0.00 | 0.00 | 13 | 1001.1 |
| 20260903010041 | 83 | 180 | 4.0 | 9.0 | 0.00 | 0.00 | 0.00 | 13 | 1001.2 |
| 20260903005538 | 83 | 175 | 4.0 | 9.0 | 0.00 | 0.00 | 0.00 | 13 | 1001.2 |
| 20260903005037 | 83 | 182 | 5.0 | 8.0 | 0.00 | 0.00 | 0.00 | 13 | 1001.1 |
| 20260903004537 | 83 | 183 | 4.0 | 9.0 | 0.00 | 0.00 | 0.00 | 13 | 1001.1 |
| 20260903004039 | 83 | 200 | 4.0 | 9.0 | 0.00 | 0.00 | 0.00 | 13 | 1001.1 |
| 20260903003538 | 83 | 182 | 3.0 | 9.0 | 0.00 | 0.00 | 0.00 | 14 | 1001.1 |
| 20260903003038 | 83 | 214 | 4.0 | 9.0 | 0.00 | 0.00 | 0.00 | 15 | 1001.2 |
| 20260903002536 | 83 | 184 | 5.0 | 8.0 | 0.00 | 0.00 | 0.00 | 13 | 1001.2 |
| 20260903002035 | 83 | 175 | 3.0 | 7.0 | 0.00 | 0.00 | 0.00 | 15 | 1001.2 |
| 20260903001535 | 83 | 196 | 3.0 | 8.0 | 0.00 | 0.00 | 0.00 | 15 | 1001.3 |
| 20260903001035 | 83 | 197 | 5.0 | 9.0 | 0.00 | 0.00 | 0.00 | 14 | 1001.2 |
| 20260903000535 | 83 | 173 | 6.0 | 12.0 | 0.00 | 0.00 | 0.00 | 14 | 1001.1 |
| 20260903000035 | 83 | 194 | 6.0 | 12.0 | 0.00 | 0.00 | 0.00 | 13 | 1001.2 |
| 20260902235535 | 83 | 187 | 4.0 | 8.0 | 0.00 | 0.00 | 0.00 | 14 | 1001.1 |
| 20260902235034 | 83 | 237 | 3.0 | 6.0 | 0.00 | 0.00 | 0.00 | 15 | 1001.1 |
| 20260902234534 | 83 | 191 | 2.0 | 8.0 | 0.00 | 0.00 | 0.00 | 14 | 1001.2 |
| 20260902234034 | 84 | 200 | 3.0 | 8.0 | 0.00 | 0.00 | 0.00 | 16 | 1001.3 |
| 20260902233534 | 84 | 186 | 4.0 | 9.0 | 0.00 | 0.00 | 0.00 | 15 | 1001.2 |
| 20260902233035 | 84 | 200 | 3.0 | 13.0 | 0.00 | 0.00 | 0.00 | 15 | 1001.3 |
| 20260902232533 | 83 | 250 | 5.0 | 14.0 | 0.00 | 0.00 | 0.00 | 14 | 1001.4 |
| 20260902232032 | 84 | 189 | 8.0 | 14.0 | 0.00 | 0.00 | 0.00 | 14 | 1001.5 |
| 20260902231534 | 84 | 186 | 5.0 | 13.0 | 0.00 | 0.00 | 0.00 | 13 | 1001.4 |
| 20260902231033 | 84 | 182 | 5.0 | 13.0 | 0.00 | 0.00 | 0.00 | 14 | 1001.5 |
| 20260902230533 | 84 | 186 | 5.0 | 14.0 | 0.00 | 0.00 | 0.00 | 14 | 1001.4 |
| 20260902230032 | 84 | 199 | 5.0 | 16.0 | 0.00 | 0.00 | 0.00 | 14 | 1001.5 |
| 20260902225532 | 84 | 135 | 6.0 | 18.0 | 0.00 | 0.00 | 0.00 | 13 | 1001.3 |
| 20260902225032 | 84 | 195 | 6.0 | 18.0 | 0.00 | 0.00 | 0.00 | 14 | 1001.3 |
| 20260902224543 | 84 | 176 | 7.0 | 17.0 | 0.00 | 0.00 | 0.00 | 14 | 1001.3 |
| 20260902224032 | 85 | 195 | 8.0 | 17.0 | 0.00 | 0.00 | 0.00 | 14 | 1001.2 |
| 20260902223533 | 85 | 154 | 7.0 | 17.0 | 0.00 | 0.00 | 0.00 | 14 | 1001.2 |
| 20260902223031 | 85 | 167 | 7.0 | 15.0 | 0.00 | 0.00 | 0.00 | 15 | 1001.4 |
| 20260902222530 | 86 | 171 | 7.0 | 15.0 | 0.00 | 0.00 | 0.00 | 16 | 1001.4 |
| 20260902222037 | 85 | 195 | 5.0 | 11.0 | 0.00 | 0.00 | 0.00 | 16 | 1001.4 |
| 20260902221529 | 85 | 221 | 5.0 | 11.0 | 0.00 | 0.00 | 0.00 | 14 | 1001.4 |
| 20260902221029 | 85 | 194 | 2.0 | 7.0 | 0.00 | 0.00 | 0.00 | 14 | 1001.5 |
| 20260902220530 | 86 | 201 | 4.0 | 8.0 | 0.00 | 0.00 | 0.00 | 13 | 1001.6 |
| 20260902220027 | 85 | 235 | 3.0 | 10.0 | 0.00 | 0.00 | 0.00 | 16 | 1001.7 |
| 20260902215530 | 85 | 178 | 5.0 | 14.0 | 0.00 | 0.00 | 0.00 | 15 | 1001.8 |
| 20260902215026 | 84 | 202 | 6.0 | 14.0 | 0.00 | 0.00 | 0.00 | 15 | 1001.7 |
| 20260902214526 | 84 | 202 | 6.0 | 10.0 | 0.00 | 0.00 | 0.00 | 15 | 1001.7 |
| 20260902214031 | 84 | 188 | 6.0 | 12.0 | 0.00 | 0.00 | 0.00 | 15 | 1001.8 |
| 20260902213525 | 84 | 182 | 7.0 | 13.0 | 0.00 | 0.00 | 0.00 | 14 | 1001.8 |
| 20260902213027 | 84 | 141 | 5.0 | 18.0 | 0.00 | 0.00 | 0.00 | 15 | 1001.9 |
| 20260902212524 | 84 | 157 | 8.0 | 18.0 | 0.00 | 0.00 | 0.00 | 15 | 1001.9 |
| 20260902212025 | 85 | 178 | 11.0 | 18.0 | 0.00 | 0.00 | 0.00 | 16 | 1001.8 |
| 20260902211522 | 85 | 194 | 7.0 | 16.0 | 0.00 | 0.00 | 0.00 | 16 | 1001.8 |
| 20260902211022 | 85 | 195 | 8.0 | 17.0 | 0.00 | 0.00 | 0.00 | 16 | 1001.9 |
| 20260902210522 | 85 | 188 | 5.0 | 20.0 | 0.00 | 0.00 | 0.00 | 17 | 1002.0 |
| 20260902210022 | 84 | 167 | 8.0 | 18.0 | 0.00 | 0.00 | 0.00 | 17 | 1001.9 |
| 20260902205519 | 85 | 192 | 7.0 | 16.0 | 0.00 | 0.00 | 0.00 | 19 | 1002.0 |
| 20260902205018 | 84 | 167 | 7.0 | 21.0 | 0.00 | 0.00 | 0.00 | 20 | 1002.1 |
| 20260902204521 | 84 | 182 | 9.0 | 21.0 | 0.00 | 0.00 | 0.00 | 21 | 1002.2 |
| 20260902204017 | 85 | 163 | 7.0 | 21.0 | 0.00 | 0.00 | 0.00 | 21 | 1002.2 |
| 20260902203515 | 85 | 204 | 7.0 | 21.0 | 0.00 | 0.00 | 0.00 | 21 | 1002.2 |
| 20260902203017 | 84 | 142 | 8.0 | 18.0 | 0.00 | 0.00 | 0.00 | 22 | 1002.3 |
| 20260902202514 | 84 | 188 | 9.0 | 26.0 | 0.00 | 0.00 | 0.00 | 20 | 1002.3 |
| 20260902202014 | 83 | 173 | 10.0 | 26.0 | 0.00 | 0.00 | 0.00 | 21 | 1002.4 |
| 20260902201514 | 83 | 185 | 4.0 | 10.0 | 0.00 | 0.00 | 0.00 | 22 | 1002.5 |
| 20260902201012 | 84 | 216 | 6.0 | 16.0 | 0.00 | 0.00 | 0.00 | 22 | 1002.6 |
| 20260902200511 | 83 | 181 | 8.0 | 16.0 | 0.00 | 0.00 | 0.00 | 22 | 1002.7 |
| 20260902200011 | 84 | 154 | 7.0 | 14.0 | 0.00 | 0.00 | 0.00 | 22 | 1002.8 |
| 20260902195509 | 84 | 165 | 5.0 | 15.0 | 0.00 | 0.00 | 0.00 | 24 | 1002.9 |
| 20260902195007 | 84 | 188 | 8.0 | 15.0 | 0.00 | 0.00 | 0.00 | 22 | 1003.0 |
| 20260902194513 | 83 | 192 | 7.0 | 14.0 | 0.00 | 0.00 | 0.00 | 22 | 1003.0 |
| 20260902194005 | 83 | 167 | 6.0 | 19.0 | 0.00 | 0.00 | 0.00 | 22 | 1003.0 |
| 20260902193504 | 82 | 155 | 8.0 | 19.0 | 0.00 | 0.00 | 0.00 | 24 | 1003.1 |
| 20260902193004 | 82 | 134 | 10.0 | 19.0 | 0.00 | 0.00 | 0.00 | 23 | 1003.1 |
| 20260902192502 | 82 | 172 | 9.0 | 20.0 | 0.00 | 0.00 | 0.00 | 24 | 1003.3 |
| 20260902192102 | 82 | 174 | 10.0 | 22.0 | 0.00 | 0.00 | 0.00 | 26 | 1003.3 |
| 20260902191501 | 82 | 177 | 7.0 | 16.0 | 0.00 | 0.00 | 0.00 | 26 | 1003.3 |
| 20260902191101 | 82 | 154 | 8.0 | 16.0 | 0.00 | 0.00 | 0.00 | 25 | 1003.3 |
| 20260902190600 | 82 | 161 | 7.0 | 19.0 | 0.00 | 0.00 | 0.00 | 25 | 1003.4 |
| 20260902190113 | 82 | 140 | 9.0 | 22.0 | 0.00 | 0.00 | 0.00 | 26 | 1003.5 |
| 20260902185602 | 81 | 175 | 10.0 | 29.0 | 0.00 | 0.00 | 0.00 | 26 | 1003.6 |
| 20260902185059 | 82 | 167 | 12.0 | 28.0 | 0.00 | 0.00 | 0.00 | 26 | 1003.7 |
| 20260902184557 | 81 | 182 | 7.0 | 17.0 | 0.00 | 0.00 | 0.00 | 26 | 1003.6 |
| 20260902184056 | 81 | 147 | 8.0 | 18.0 | 0.00 | 0.00 | 0.00 | 26 | 1003.7 |
| 20260902183600 | 81 | 206 | 11.0 | 23.0 | 0.00 | 0.00 | 0.00 | 26 | 1003.9 |
| 20260902183106 | 81 | 186 | 10.0 | 23.0 | 0.00 | 0.00 | 0.00 | 27 | 1003.7 |
| 20260902182553 | 81 | 186 | 8.0 | 24.0 | 0.00 | 0.00 | 0.00 | 26 | 1003.9 |
| 20260902182053 | 80 | 128 | 13.0 | 24.0 | 0.00 | 0.00 | 0.00 | 27 | 1003.8 |
| 20260902181553 | 80 | 169 | 8.0 | 18.0 | 0.00 | 0.00 | 0.00 | 28 | 1003.8 |
| 20260902181051 | 80 | 184 | 8.0 | 18.0 | 0.00 | 0.00 | 0.00 | 28 | 1003.9 |
| 20260902180550 | 80 | 180 | 10.0 | 18.0 | 0.00 | 0.00 | 0.00 | 28 | 1003.9 |
| 20260902180050 | 80 | 189 | 8.0 | 20.0 | 0.00 | 0.00 | 0.00 | 29 | 1003.9 |
| 20260902175548 | 80 | 175 | 7.0 | 17.0 | 0.00 | 0.00 | 0.00 | 29 | 1004.1 |
| 20260902175049 | 80 | 171 | 8.0 | 16.0 | 0.00 | 0.00 | 0.00 | 29 | 1004.1 |
| 20260902174547 | 80 | 180 | 8.0 | 24.0 | 0.00 | 0.00 | 0.00 | 30 | 1004.1 |
| 20260902174046 | 80 | 182 | 11.0 | 20.0 | 0.00 | 0.00 | 0.00 | 31 | 1004.2 |
| 20260902173546 | 79 | 191 | 9.0 | 19.0 | 0.00 | 0.00 | 0.00 | 31 | 1004.2 |
| 20260902173044 | 79 | 190 | 9.0 | 18.0 | 0.00 | 0.00 | 0.00 | 31 | 1004.3 |
| 20260902172543 | 80 | 159 | 7.0 | 18.0 | 0.00 | 0.00 | 0.00 | 32 | 1004.3 |
| 20260902172042 | 79 | 207 | 11.0 | 18.0 | 0.00 | 0.00 | 0.00 | 31 | 1004.4 |
| 20260902171542 | 79 | 181 | 10.0 | 21.0 | 0.00 | 0.00 | 0.00 | 31 | 1004.3 |
| 20260902171045 | 79 | 173 | 9.0 | 21.0 | 0.00 | 0.00 | 0.00 | 31 | 1004.3 |
| 20260902170547 | 79 | 182 | 11.0 | 17.0 | 0.00 | 0.00 | 0.00 | 30 | 1004.4 |
| 20260902170039 | 79 | 178 | 8.0 | 17.0 | 0.00 | 0.00 | 0.00 | 31 | 1004.4 |
| 20260902165538 | 79 | 184 | 9.0 | 19.0 | 0.00 | 0.00 | 0.00 | 30 | 1004.5 |
| 20260902165037 | 79 | 154 | 10.0 | 19.0 | 0.00 | 0.00 | 0.00 | 30 | 1004.4 |
| 20260902164536 | 79 | 182 | 10.0 | 17.0 | 0.00 | 0.00 | 0.00 | 32 | 1004.3 |
| 20260902164034 | 78 | 139 | 9.0 | 20.0 | 0.00 | 0.00 | 0.00 | 32 | 1004.3 |
| 20260902163533 | 78 | 145 | 12.0 | 20.0 | 0.00 | 0.00 | 0.00 | 33 | 1004.3 |
| 20260902163031 | 78 | 165 | 10.0 | 17.0 | 0.00 | 0.00 | 0.00 | 34 | 1004.3 |
| 20260902162530 | 77 | 188 | 7.0 | 17.0 | 0.00 | 0.00 | 0.00 | 36 | 1004.4 |
| 20260902162029 | 77 | 185 | 7.0 | 14.0 | 0.00 | 0.00 | 0.00 | 37 | 1004.6 |
| 20260902161539 | 77 | 188 | 7.0 | 19.0 | 0.00 | 0.00 | 0.00 | 37 | 1004.6 |
| 20260902161028 | 77 | 183 | 9.0 | 21.0 | 0.00 | 0.00 | 0.00 | 37 | 1004.7 |
| 20260902160527 | 77 | 159 | 8.0 | 17.0 | 0.00 | 0.00 | 0.00 | 37 | 1004.6 |
| 20260902160032 | 77 | 137 | 6.0 | 16.0 | 0.00 | 0.00 | 0.00 | 38 | 1004.6 |
| 20260902155523 | 77 | 122 | 6.0 | 16.0 | 0.00 | 0.00 | 0.00 | 38 | 1004.5 |
| 20260902155023 | 76 | 186 | 6.0 | 13.0 | 0.00 | 0.00 | 0.00 | 38 | 1004.7 |
| 20260902154541 | 76 | 178 | 6.0 | 13.0 | 0.00 | 0.00 | 0.00 | 38 | 1004.7 |
| 20260902154014 | 76 | 161 | 5.0 | 17.0 | 0.00 | 0.00 | 0.00 | 39 | 1004.7 |
| 20260902153513 | 75 | 202 | 6.0 | 15.0 | 0.00 | 0.00 | 0.00 | 39 | 1004.7 |
| 20260902153011 | 75 | 175 | 6.0 | 15.0 | 0.00 | 0.00 | 0.00 | 39 | 1004.7 |
| 20260902152509 | 75 | 159 | 8.0 | 14.0 | 0.00 | 0.00 | 0.00 | 39 | 1004.8 |
| 20260902152008 | 75 | 121 | 9.0 | 20.0 | 0.00 | 0.00 | 0.00 | 39 | 1004.7 |
| 20260902151507 | 74 | 194 | 7.0 | 20.0 | 0.00 | 0.00 | 0.00 | 41 | 1004.8 |
| 20260902151005 | 74 | 179 | 7.0 | 15.0 | 0.00 | 0.00 | 0.00 | 41 | 1004.7 |
| 20260902150507 | 73 | 182 | 5.0 | 13.0 | 0.00 | 0.00 | 0.00 | 43 | 1004.7 |
| 20260902150004 | 73 | 144 | 6.0 | 13.0 | 0.00 | 0.00 | 0.00 | 43 | 1004.6 |
| 20260902145502 | 73 | 171 | 5.0 | 12.0 | 0.00 | 0.00 | 0.00 | 44 | 1004.5 |
| 20260902145000 | 73 | 172 | 6.0 | 12.0 | 0.00 | 0.00 | 0.00 | 44 | 1004.4 |
| 20260902144607 | 73 | 184 | 6.0 | 14.0 | 0.00 | 0.00 | 0.00 | 44 | 1004.4 |
| 20260902144100 | 72 | 178 | 4.0 | 16.0 | 0.00 | 0.00 | 0.00 | 45 | 1004.4 |
| 20260902143559 | 72 | 109 | 5.0 | 16.0 | 0.00 | 0.00 | 0.00 | 46 | 1004.3 |
| 20260902143058 | 72 | 173 | 5.0 | 15.0 | 0.00 | 0.00 | 0.00 | 46 | 1004.4 |
| 20260902142558 | 71 | 140 | 6.0 | 16.0 | 0.00 | 0.00 | 0.00 | 47 | 1004.3 |
| 20260902142059 | 71 | 158 | 7.0 | 16.0 | 0.00 | 0.00 | 0.00 | 47 | 1004.5 |